{"data":{"norad_id":63833,"intl_designator":"2025-052BP","name":"HERMES-4","alt_names":[],"object_type":"PAYLOAD","status":"ACTIVE","operator":null,"country":"IT","launch_date":"2025-03-15","launch_site_code":"AFWTR","launch_vehicle":null,"mission":null,"orbit_class":"UNKNOWN","rcs_meters":null,"size_class":null,"mass_kg":null,"dimensions":null,"purposes":[],"wikipedia_slug":null,"has_3d_model":false,"image_url":null,"decayed_at":null,"tle_current":{"epoch":"2026-09-21T03:42:48.642624Z","epoch_age_seconds":145133,"freshness":"FRESH","line1":"1 63833U 25052BP  26264.15472966  .00006371  00000+0  20770-3 0  9992","line2":"2 63833  97.3736 157.5417 0001962 174.6897 185.4366 15.32159867 84631","mean_motion":15.32159867,"eccentricity":0.0001962,"inclination_deg":97.3736,"raan_deg":157.5417,"arg_perigee_deg":174.6897,"mean_anomaly_deg":185.4366,"bstar":0.0002077,"rev_number":8463,"period_min":93.984970564433,"perigee_km":468.02601773782,"apogee_km":470.71297928784,"semimajor_km":6847.5064985128,"source":"CELESTRAK","updated_at":"2026-09-22T09:00:29.366199Z"}}}